{"data":{"norad_id":62501,"epoch":"2026-05-25T04:51:48.469248Z","epoch_age_seconds":61464,"freshness":"FRESH","line1":"1 62501U 25003Q   26145.20264432  .00013873  00000+0  51236-3 0  9996","line2":"2 62501  43.0002 216.8270 0001448 275.7200  84.3486 15.27601597 78361","mean_motion":15.27601597,"eccentricity":0.0001448,"inclination_deg":43.0002,"raan_deg":216.827,"arg_perigee_deg":275.72,"mean_anomaly_deg":84.3486,"bstar":0.00051236,"rev_number":7836,"period_min":94.265415984636,"perigee_km":481.99093723136,"apogee_km":483.9779179968,"semimajor_km":6861.1214276141,"source":"CELESTRAK","updated_at":"2026-05-25T13:38:19.699318Z"}}